Wetbulb
33.48 34.41 33.90 32.96 33.25 35.16 34.12 33.57 30.78 32.48 33.57 36.98 40.18 41.08 41.59 41.39 40.87 39.96 39.78 39.66 39.71 38.47 37.78 37.05 36.86 36.45 36.41 36.33 36.14 35.84 35.50 34.92 34.69 34.92 34.44 34.05 33.63 33.77 33.94 33.86 33.99 34.09 34.59 34.85
29.35 34.34 33.67 31.42 33.10 33.69 35.19 33.65 34.12 34.03 33.28 40.03 43.12 42.34 41.08 40.46 39.68 39.29 39.43 39.64 39.58 38.82 38.04 37.44 37.42 36.35 36.77 36.14 35.90 36.20 35.38 35.09 35.73 34.83 34.01 33.31 33.06 33.10 32.90 32.63 32.85 33.23 33.13 33.62
27.04 31.11 30.77 25.76 30.26 32.51 32.10 34.19 34.59 31.27 35.08 38.70 39.11 40.32 40.42 39.99 40.19 39.99 40.02 39.84 39.27 38.77 37.99 38.01 37.12 36.83 36.09 36.04 36.27 35.97 35.48 35.69 35.45 34.39 33.40 32.94 32.92 32.45 31.90 31.62 32.09 31.77 32.23 32.95
24.97 27.25 17.20 32.34 37.74 37.64 35.12 36.09 36.77 36.05 37.13 39.87 40.70 42.22 42.71 42.69 41.30 40.85 40.52 40.17 39.72 39.13 37.96 37.72 36.43 36.42 36.09 36.33 35.98 35.38 34.82 35.19 34.89 33.74 32.72 32.54 32.03 31.42 31.31 31.45 31.31 31.41 31.41 31.89
20.63 24.28 28.96 29.92 34.23 34.01 31.70 33.85 35.96 36.20 37.26 40.05 41.94 39.77 36.72 42.85 43.11 42.33 41.82 40.99 40.55 39.91 37.94 36.28 36.26 36.40 36.21 35.28 35.07 34.61 34.24 34.30 33.77 33.30 32.16 31.73 30.88 30.44 31.03 30.91 30.78 31.30 31.58 30.84
21.92 20.02 18.44 31.00 35.71 37.35 37.13 28.80 38.19 38.41 38.51 38.81 38.91 33.89 36.27 41.58 43.21 42.64 42.24 41.34 39.44 37.81 37.22 36.24 35.58 36.58 35.34 34.41 33.87 33.29 34.13 33.70 33.39 32.99 31.99 30.66 30.34 30.23 30.60 30.16 30.48 30.26 30.34 30.59
25.61 19.64 26.21 33.13 37.41 38.12 28.24 30.87 38.09 39.05 39.57 39.54 38.23 40.75 42.88 42.27 42.04 42.04 40.71 39.47 37.85 37.43 36.59 36.07 36.17 36.21 34.52 33.72 33.13 34.19 34.31 33.01 32.57 32.11 31.40 30.92 30.44 30.32 29.55 29.22 29.04 28.57 28.85 29.23
24.46 20.72 21.81 35.56 34.37 32.94 37.02 36.84 37.95 37.77 40.37 40.65 42.34 39.08 40.06 41.56 40.54 39.33 38.24 37.11 37.55 36.50 35.20 35.20 36.26 35.77 33.82 32.82 34.09 34.72 33.48 32.26 31.42 31.16 32.02 31.13 29.57 29.41 29.80 28.38 27.28 27.03 26.95 26.26
29.39 28.65 34.01 34.69 36.53 38.95 36.94 36.46 35.29 37.40 40.57 42.14 38.50 38.03 40.35 40.05 38.90 38.58 37.23 37.11 37.30 35.87 33.90 34.90 35.61 35.57 33.18 33.12 34.19 33.69 32.21 30.73 30.18 30.26 29.64 29.56 28.83 28.30 27.90 27.88 26.60 26.34 26.17 25.13
29.66 32.75 33.98 35.65 37.22 36.59 35.90 35.50 36.20 37.66 39.86 41.19 38.34 38.74 39.59 38.73 38.32 37.37 37.05 36.18 36.36 34.49 33.70 33.34 34.34 34.52 34.64 33.95 34.09 32.75 30.96 29.80 29.44 29.02 28.77 28.56 28.78 28.97 27.65 26.83 26.21 26.51 25.75 25.42
25.37 31.24 35.03 36.13 36.35 37.16 37.62 38.25 37.49 37.77 39.60 40.56 38.92 39.02 38.88 38.26 37.86 37.21 36.46 36.01 35.56 34.76 34.01 33.23 33.58 33.24 34.04 33.65 32.91 31.47 30.23 29.82 29.23 29.07 28.50 27.66 28.24 28.04 28.29 28.27 28.56 26.21 25.66 25.99
22.08 32.30 30.62 32.95 38.57 38.61 37.37 37.74 37.80 37.27 37.65 39.80 40.34 38.87 39.24 38.19 37.89 36.74 35.46 35.27 34.83 34.40 33.98 32.90 33.31 33.21 32.99 33.26 32.87 31.28 30.00 29.57 29.07 28.94 27.89 27.10 26.83 26.24 30.05 30.56 30.57 29.81 28.99 27.30
28.19 33.24 34.36 37.60 39.63 39.72 39.28 38.93 37.91 38.52 39.73 38.46 39.80 39.96 39.24 37.78 37.21 36.46 35.24 35.05 34.10 33.70 33.73 33.28 32.98 32.63 32.73 32.64 31.91 30.74 29.82 29.45 28.82 28.86 26.70 25.66 25.59 24.37 23.25 26.03 29.52 28.80 27.86 27.03
33.18 32.96 32.00 36.51 36.90 41.89 38.40 38.41 40.43 38.63 39.50 39.99 39.79 40.03 39.13 37.60 36.07 34.85 34.53 34.97 34.62 33.99 33.40 33.26 32.56 31.92 32.43 32.02 31.28 30.15 29.44 27.41 28.64 27.61 25.52 25.00 24.45 24.65 24.03 23.83 23.75 24.06 26.48 24.47
33.53 34.26 32.91 34.97 37.04 38.56 38.22 37.86 36.98 36.93 37.92 38.07 39.55 38.76 37.44 34.99 34.23 34.98 35.20 34.63 34.11 33.42 33.12 32.65 32.00 30.81 31.62 31.49 30.61 29.87 29.21 27.11 27.04 25.71 25.32 24.73 25.40 25.45 24.94 24.42 23.59 22.85 22.16 21.41
32.64 32.98 34.16 36.29 38.11 39.06 37.22 37.15 36.93 36.21 37.16 37.60 37.76 36.93 35.80 36.01 35.49 34.28 34.08 33.78 31.95 31.24 32.12 32.02 31.47 31.06 31.36 31.08 30.23 29.54 29.10 26.77 26.11 25.75 25.70 25.70 25.50 25.50 24.42 23.65 22.00 20.75 19.57 18.21
30.33 29.97 35.00 36.37 37.82 37.48 37.50 38.21 37.75 36.64 37.05 37.09 36.70 35.60 34.96 34.35 33.58 32.77 32.95 33.74 33.74 32.61 32.60 32.08 31.20 31.02 31.36 31.05 30.27 29.35 28.43 26.70 25.41 26.18 25.58 25.66 25.41 24.92 23.68 21.94 20.23 19.04 18.06 17.31
37.39 38.44 37.81 38.71 38.43 36.67 35.59 36.89 36.45 36.51 36.44 37.17 35.25 34.15 32.77 32.21 31.77 31.75 31.84 32.19 31.43 31.28 31.87 32.17 31.38 31.28 31.23 30.77 29.91 28.89 27.70 26.83 26.56 25.78 25.82 24.83 24.27 23.49 22.22 20.72 19.02 16.34 15.48 13.23
38.61 38.11 38.04 38.20 39.83 37.45 37.25 36.19 35.88 36.43 36.39 34.61 33.11 32.45 32.81 33.06 32.09 31.65 31.14 30.54 29.82 29.17 29.29 30.86 30.35 30.65 30.29 29.61 28.97 28.08 27.36 26.47 25.92 25.35 24.74 20.26 21.37 20.93 18.55 17.10 14.39 12.88 11.76 10.70
37.58 39.09 38.62 38.65 39.15 37.88 36.72 36.62 35.84 35.31 35.03 33.50 33.30 31.86 30.57 30.58 31.35 30.39 31.09 30.27 31.38 32.34 30.52 30.52 30.77 30.18 29.34 28.33 27.63 27.38 26.70 25.43 24.43 22.85 21.08 19.33 17.17 13.91 14.19 11.74 12.06 9.18 5.35 8.10
37.12 37.44 36.88 37.67 35.96 36.19 36.35 35.38 35.13 33.67 33.39 33.54 32.64 31.53 30.83 30.56 30.68 31.22 30.31 29.62 25.24 30.54 31.46 29.60 30.41 29.05 28.85 27.19 26.79 25.77 24.55 23.15 22.07 20.58 18.00 14.97 11.26 12.77 11.46 11.25 10.87 7.97 4.27 5.32
37.78 35.70 34.76 34.79 34.03 34.10 34.27 35.71 36.08 34.15 33.33 32.85 33.14 32.38 30.03 29.45 30.15 30.97 30.65 31.58 28.60 30.25 29.95 30.39 29.29 28.31 27.76 25.99 26.47 24.69 22.90 22.29 20.87 19.05 15.72 13.03 12.11 10.33 8.65 7.24 6.51 4.74 2.32 -1.58
36.59 36.44 34.04 33.37 35.13 35.11 35.02 36.10 34.29 34.21 33.20 33.18 32.03 30.97 31.17 30.88 31.50 29.92 27.82 28.73 30.42 30.13 30.86 30.13 27.86 25.87 24.81 27.22 25.83 23.55 22.41 20.81 19.51 18.71 16.07 14.30 13.09 11.61 8.87 7.73 5.64 5.84 0.05 2.33
35.44 35.74 34.85 35.33 35.88 34.90 34.34 34.72 34.86 34.89 34.17 33.81 33.32 33.16 32.34 30.45 28.78 28.44 30.29 29.96 29.64 29.83 30.34 28.20 26.37 25.03 27.24 26.32 25.06 23.44 22.46 20.34 19.58 18.25 16.88 13.27 11.60 10.25 8.84 7.20 6.12 3.81 2.57 2.64
37.39 36.11 35.83 35.79 35.71 35.58 35.89 34.82 35.03 34.18 33.59 32.97 32.17 32.91 33.45 34.23 33.28 30.15 30.17 30.44 29.55 30.73 28.59 26.19 25.46 25.33 27.18 25.54 24.89 24.46 22.92 21.83 20.46 18.55 17.70 14.91 11.77 9.90 8.25 7.71 6.64 4.90 1.93 1.16
35.37 35.58 36.37 36.94 36.50 36.08 35.03 35.64 33.83 33.77 33.10 31.12 31.45 32.00 31.42 31.44 31.66 31.15 30.77 30.10 30.46 29.09 27.37 26.32 26.40 27.24 26.16 25.87 25.25 24.32 22.77 21.34 19.10 18.75 17.51 15.30 12.65 11.04 8.56 7.16 5.08 5.21 2.18 -0.60
34.92 34.00 34.21 34.34 35.29 35.51 35.42 34.85 33.36 32.47 32.79 32.49 31.25 31.71 31.69 30.63 31.37 30.90 29.82 29.57 29.18 27.94 27.16 27.26 26.66 27.50 26.06 25.51 24.81 23.46 22.43 20.84 19.27 18.38 17.23 14.42 12.61 10.47 8.52 7.97 5.71 3.79 -0.30 -1.84
MSLP
1007.99 1007.61 1007.72 1007.74 1007.94 1008.34 1008.76 1008.66 1008.83 1008.40 1009.03 1009.01 1009.02 1009.60 1010.20 1011.79 1013.67 1015.30 1016.58 1017.75 1018.80 1020.01 1021.27 1022.39 1023.31 1024.00 1024.56 1025.17 1025.72 1026.19 1026.74 1027.30 1027.70 1027.85 1028.03 1028.28 1028.49 1028.52 1028.42 1028.16 1027.95 1027.76 1027.39 1027.20
1008.63 1007.86 1007.31 1007.48 1007.41 1007.56 1007.40 1007.95 1007.69 1008.01 1008.16 1007.90 1008.27 1010.01 1010.89 1011.74 1012.81 1014.06 1015.46 1016.87 1018.18 1019.44 1020.70 1021.91 1022.68 1023.51 1024.24 1025.05 1025.65 1026.00 1026.50 1027.11 1027.65 1027.80 1028.02 1028.37 1028.57 1028.63 1028.40 1028.24 1028.10 1027.86 1027.63 1027.46
1009.06 1008.23 1007.96 1007.45 1006.10 1006.33 1006.79 1006.61 1006.88 1007.19 1007.17 1007.85 1008.72 1009.19 1009.73 1010.97 1011.80 1012.80 1014.28 1015.81 1017.28 1018.60 1019.95 1021.13 1022.00 1022.98 1024.02 1024.75 1025.36 1025.90 1026.30 1026.97 1027.72 1027.96 1028.32 1028.54 1028.56 1028.50 1028.35 1028.29 1028.14 1027.89 1027.70 1027.63
1010.03 1009.14 1008.13 1004.56 1004.72 1004.89 1005.37 1005.21 1005.20 1005.65 1006.16 1006.68 1007.01 1007.32 1008.02 1009.31 1010.46 1011.82 1013.45 1015.07 1016.65 1017.96 1019.48 1020.65 1021.81 1022.98 1023.77 1024.49 1025.14 1025.68 1026.41 1027.12 1027.72 1028.09 1028.38 1028.38 1028.44 1028.48 1028.54 1028.40 1028.20 1028.08 1028.04 1027.90
1010.66 1009.22 1006.76 1005.28 1004.46 1004.33 1004.73 1003.66 1004.34 1005.03 1005.71 1006.06 1006.45 1007.62 1008.64 1009.48 1010.34 1010.79 1012.12 1013.89 1015.33 1016.92 1018.61 1020.23 1021.53 1022.60 1023.38 1024.36 1025.01 1025.65 1026.52 1027.22 1027.67 1028.02 1028.31 1028.39 1028.52 1028.66 1028.64 1028.47 1028.54 1028.46 1028.24 1028.03
1010.65 1009.00 1006.71 1003.46 1004.08 1003.72 1004.15 1002.71 1003.01 1003.84 1004.54 1005.29 1006.56 1007.53 1007.75 1008.39 1009.39 1010.93 1012.24 1013.77 1015.46 1017.09 1018.60 1020.05 1021.37 1022.21 1023.16 1024.14 1024.90 1025.82 1026.48 1027.02 1027.52 1028.05 1028.23 1028.37 1028.58 1028.76 1028.75 1028.86 1028.90 1028.81 1028.50 1028.38
1009.18 1008.32 1005.20 1003.60 1002.78 1003.34 1004.25 1000.26 1001.27 1002.07 1003.27 1004.30 1004.72 1004.77 1005.68 1007.54 1009.33 1010.45 1011.66 1013.60 1015.36 1016.66 1017.85 1019.36 1020.92 1021.83 1022.95 1023.99 1024.92 1025.52 1026.27 1026.88 1027.47 1027.92 1028.22 1028.43 1028.61 1028.78 1028.99 1029.16 1029.06 1028.91 1028.71 1028.62
1008.36 1007.65 1005.20 1002.90 1003.06 1002.47 1001.09 1001.07 1001.39 1001.95 1002.52 1003.15 1003.43 1004.31 1005.51 1006.75 1008.60 1010.01 1011.69 1013.57 1014.85 1016.33 1018.00 1019.62 1020.68 1021.56 1022.82 1023.83 1024.53 1025.44 1026.21 1026.89 1027.42 1027.80 1028.22 1028.44 1028.61 1028.93 1029.23 1029.29 1029.18 1029.03 1028.84 1028.63
1006.08 1004.32 1002.99 1002.16 1001.72 1001.10 1000.81 1001.08 1001.51 1001.58 1001.82 1002.48 1003.58 1004.17 1005.17 1006.83 1008.37 1009.54 1010.96 1012.80 1014.39 1015.90 1018.03 1019.53 1020.46 1021.21 1022.40 1023.48 1024.39 1025.32 1026.16 1026.92 1027.36 1027.75 1028.16 1028.51 1028.81 1029.16 1029.34 1029.38 1029.34 1029.14 1029.04 1028.82
1006.80 1003.77 1002.67 1002.05 1001.64 1001.30 1001.21 1001.44 1001.53 1001.65 1001.75 1002.43 1003.39 1004.17 1005.13 1006.60 1008.03 1009.59 1011.00 1012.52 1014.13 1016.05 1017.89 1019.21 1020.14 1021.08 1021.89 1023.12 1024.10 1025.07 1026.05 1026.79 1027.22 1027.63 1028.19 1028.65 1028.96 1029.24 1029.35 1029.44 1029.41 1029.30 1029.23 1029.13
1008.34 1005.37 1003.16 1001.91 1001.26 1001.03 1001.18 1001.16 1001.39 1001.50 1001.65 1002.25 1003.33 1004.24 1004.79 1006.43 1007.83 1008.92 1010.48 1012.28 1013.71 1015.26 1017.02 1018.38 1019.75 1020.99 1021.86 1022.86 1023.82 1024.93 1025.77 1026.51 1027.12 1027.55 1028.12 1028.72 1029.05 1029.21 1029.22 1029.33 1029.24 1029.28 1029.41 1029.35
1007.59 1005.67 1005.52 1004.19 1002.37 1000.91 1001.16 1001.01 1001.09 1001.42 1001.91 1002.36 1002.59 1003.67 1004.95 1006.08 1007.18 1008.53 1010.32 1011.99 1013.61 1015.23 1016.48 1018.10 1019.54 1020.73 1021.75 1022.61 1023.49 1024.47 1025.47 1026.27 1026.95 1027.49 1028.15 1028.70 1029.07 1029.32 1029.20 1029.11 1029.18 1029.29 1029.34 1029.33
1007.02 1007.00 1005.91 1004.31 1002.98 1001.19 1000.16 1000.16 1000.54 1001.00 1001.41 1002.03 1002.92 1003.43 1004.25 1005.47 1007.11 1008.44 1009.99 1011.21 1012.77 1014.33 1015.98 1017.74 1019.25 1020.49 1021.49 1022.36 1023.19 1024.12 1025.00 1025.90 1026.72 1027.41 1028.10 1028.66 1029.05 1029.22 1029.41 1029.39 1029.29 1029.44 1029.54 1029.52
1006.39 1006.18 1004.37 1003.36 1002.55 1001.08 1000.13 999.92 1000.11 1000.36 1001.23 1001.47 1002.14 1003.39 1004.35 1005.13 1007.03 1008.26 1009.50 1010.80 1012.51 1014.20 1015.99 1017.52 1019.01 1020.27 1021.16 1022.04 1022.94 1023.91 1024.79 1025.63 1026.49 1027.22 1027.92 1028.46 1028.78 1029.08 1029.29 1029.42 1029.58 1029.73 1029.65 1029.67
1004.94 1004.93 1004.34 1003.20 1002.00 1001.13 1000.40 999.78 1000.35 1000.67 1001.23 1002.00 1002.54 1003.22 1004.35 1005.86 1006.54 1008.02 1009.51 1010.86 1012.44 1014.22 1015.98 1017.47 1018.85 1020.20 1020.96 1021.76 1022.73 1023.72 1024.67 1025.69 1026.40 1027.04 1027.62 1028.03 1028.36 1028.68 1029.00 1029.35 1029.59 1029.81 1029.82 1029.84
1003.19 1003.11 1002.56 1001.74 1000.68 1000.09 1000.12 999.56 999.87 1000.47 1000.96 1001.64 1002.40 1003.38 1004.22 1005.09 1006.63 1008.09 1009.41 1010.70 1012.26 1014.23 1015.73 1017.12 1018.43 1019.58 1020.58 1021.53 1022.60 1023.66 1024.60 1025.37 1026.12 1026.70 1027.25 1027.72 1028.09 1028.51 1029.01 1029.44 1029.78 1030.07 1030.30 1030.50
1001.42 1000.79 1000.36 999.56 998.94 998.78 998.61 998.20 998.66 999.70 1000.62 1001.27 1002.12 1003.42 1004.68 1006.04 1006.97 1008.34 1009.68 1010.81 1012.02 1013.63 1015.07 1016.41 1017.83 1019.17 1020.26 1021.27 1022.22 1023.39 1024.40 1025.32 1025.83 1026.44 1027.01 1027.56 1028.05 1028.62 1029.22 1029.74 1030.21 1030.58 1030.85 1031.03
999.26 998.60 998.34 997.92 997.88 998.16 998.53 998.25 998.51 999.28 1000.00 1000.95 1002.18 1003.30 1004.52 1005.53 1006.66 1008.25 1009.70 1011.12 1012.72 1014.26 1015.32 1016.21 1017.45 1018.81 1020.02 1021.02 1021.98 1023.08 1024.04 1024.88 1025.56 1026.15 1026.87 1027.54 1028.17 1028.75 1029.34 1029.92 1030.41 1030.84 1031.25 1031.37
997.28 997.04 996.79 996.74 996.56 996.86 997.17 997.34 998.01 998.91 999.92 1000.78 1001.94 1003.14 1004.08 1005.21 1006.51 1007.93 1009.58 1011.08 1012.53 1014.04 1015.51 1016.25 1017.32 1018.52 1019.73 1020.77 1021.73 1022.82 1023.78 1024.56 1025.33 1026.07 1026.80 1027.59 1028.32 1028.92 1029.53 1030.09 1030.67 1031.12 1031.44 1031.59
995.21 995.35 995.43 995.48 995.42 995.97 996.69 996.97 997.63 998.83 999.91 1000.81 1002.14 1003.43 1004.86 1005.97 1006.86 1008.10 1009.40 1010.61 1011.41 1012.36 1014.41 1015.79 1017.06 1018.32 1019.48 1020.56 1021.46 1022.51 1023.40 1024.25 1025.05 1025.95 1026.79 1027.67 1028.49 1029.31 1029.69 1030.15 1030.73 1031.20 1031.54 1031.68
993.41 993.76 993.86 994.12 994.08 994.94 995.89 995.97 997.06 998.73 999.67 1000.58 1001.53 1003.09 1004.30 1005.73 1006.88 1008.02 1009.65 1011.07 1012.22 1012.88 1013.92 1015.40 1016.59 1018.04 1019.17 1020.28 1021.24 1022.15 1023.11 1024.07 1024.87 1025.79 1026.81 1027.78 1028.72 1029.17 1029.71 1030.18 1030.70 1031.13 1031.42 1031.58
992.32 993.07 993.27 993.40 993.90 994.52 995.65 995.57 996.59 997.98 999.22 1000.51 1001.87 1002.88 1004.46 1005.99 1007.16 1008.32 1008.74 1009.56 1011.79 1012.79 1014.06 1015.29 1016.46 1017.56 1018.71 1019.88 1020.89 1021.85 1022.92 1023.75 1024.65 1025.62 1026.63 1027.51 1028.21 1028.96 1029.60 1030.15 1030.68 1030.97 1031.24 1031.51
991.32 991.62 992.40 992.90 993.20 993.79 995.25 995.76 996.66 997.63 998.85 1000.04 1001.28 1002.70 1003.78 1004.93 1006.28 1007.92 1009.66 1010.55 1011.40 1012.41 1013.53 1014.89 1016.15 1017.36 1018.48 1019.54 1020.57 1021.62 1022.56 1023.43 1024.35 1025.23 1026.11 1026.83 1027.53 1028.29 1029.08 1029.77 1030.19 1030.57 1030.99 1031.28
990.96 991.56 992.42 993.04 993.34 994.30 995.17 995.93 996.65 997.69 998.55 999.58 1000.44 1001.53 1003.17 1005.30 1007.01 1007.57 1008.41 1009.73 1010.80 1012.18 1013.22 1014.58 1015.91 1017.06 1018.16 1019.33 1020.30 1021.31 1022.20 1023.09 1023.95 1024.78 1025.59 1026.30 1027.01 1027.74 1028.48 1029.09 1029.68 1030.21 1030.69 1031.00
991.17 991.70 992.17 992.46 993.60 994.57 994.83 995.69 996.81 998.18 999.41 1000.55 1001.45 1002.26 1003.06 1003.75 1004.05 1006.67 1008.09 1009.49 1010.69 1011.71 1013.21 1014.53 1015.59 1016.78 1017.83 1018.94 1019.93 1020.81 1021.73 1022.59 1023.39 1024.25 1025.06 1025.80 1026.56 1027.28 1027.89 1028.50 1029.13 1029.84 1030.41 1030.77
991.25 991.93 992.20 992.73 993.50 994.37 994.86 995.67 996.63 997.93 999.31 1000.82 1002.06 1002.93 1003.78 1004.59 1005.53 1006.73 1007.92 1009.20 1010.52 1011.72 1012.98 1014.41 1015.53 1016.60 1017.60 1018.58 1019.40 1020.33 1021.28 1022.16 1022.98 1023.75 1024.47 1025.22 1025.94 1026.64 1027.27 1027.99 1028.78 1029.22 1029.81 1030.27
991.10 991.93 992.32 992.88 993.62 994.27 995.04 995.45 996.45 997.89 999.01 999.99 1001.27 1002.76 1003.74 1004.87 1005.99 1006.95 1008.11 1009.34 1010.60 1011.79 1012.96 1014.15 1015.29 1016.24 1017.27 1018.16 1019.06 1020.02 1020.86 1021.69 1022.45 1023.20 1023.91 1024.59 1025.28 1025.90 1026.72 1027.33 1028.05 1028.62 1029.33 1029.76
Wind_Speed
5 9 6 7 9 10 9 8 9 6 9 14 18 22 25 20 21 20 20 18 18 16 13 11 10 8 7 8 8 7 7 7 6 6 6 5 5 5 4 5 5 5 5 6
7 8 9 7 9 12 17 7 9 3 6 8 15 9 15 21 23 24 21 20 18 17 15 14 13 11 9 9 8 7 7 7 6 6 6 6 5 4 4 5 5 5 6 6
9 4 6 2 15 14 5 8 9 14 7 9 11 17 21 22 26 26 24 22 21 20 17 15 14 12 12 11 8 8 8 7 6 5 5 4 4 4 5 5 4 5 6 6
3 4 3 13 11 15 17 15 18 7 10 16 20 24 24 23 24 25 24 22 20 17 14 13 11 10 10 10 9 9 7 7 6 5 5 5 5 5 5 4 5 5 5 5
4 7 6 2 6 9 9 20 9 13 8 13 16 7 3 16 21 25 24 21 20 18 16 12 14 12 13 10 9 9 7 7 6 5 5 5 5 5 4 5 5 5 4 6
2 8 12 10 6 4 7 18 11 15 16 14 14 13 8 21 23 19 20 19 18 17 15 15 12 13 14 11 10 8 8 7 6 5 5 5 4 4 4 3 4 4 5 5
15 6 11 5 10 9 8 12 11 20 18 19 19 13 20 19 17 18 21 21 17 19 19 17 14 15 13 11 10 9 9 7 6 6 5 5 4 3 4 4 4 5 5 4
4 8 19 7 5 18 15 6 4 11 16 21 20 12 19 24 22 24 23 19 20 19 16 14 15 15 13 12 9 10 9 8 7 6 4 4 5 4 4 4 4 4 4 4
13 11 3 6 10 12 4 4 5 7 9 19 12 12 23 23 23 24 25 21 19 19 17 14 14 14 14 10 11 11 10 8 6 6 5 4 5 4 3 4 3 4 4 5
6 7 7 7 7 5 4 5 4 5 8 13 14 17 20 20 21 20 20 21 18 19 18 15 12 11 12 13 11 11 10 8 6 6 6 5 3 3 3 3 3 3 4 5
14 23 7 7 7 5 8 8 6 6 10 16 15 18 20 19 20 20 21 19 20 20 18 16 13 11 13 12 12 10 9 7 6 5 5 4 3 3 3 2 4 3 3 3
12 17 13 20 14 9 9 10 10 10 7 12 21 21 18 20 19 21 21 19 17 17 17 16 14 13 12 12 12 12 9 6 5 5 4 4 4 3 6 7 9 10 10 8
23 23 24 24 26 17 16 14 9 11 11 17 14 19 23 22 20 21 20 22 21 21 18 17 15 14 11 11 11 11 9 8 5 5 5 4 3 4 3 3 4 7 9 10
20 21 25 23 18 22 7 7 11 8 10 15 18 17 19 20 20 22 23 21 19 19 18 17 15 14 11 11 11 9 8 8 6 5 5 4 4 4 3 2 1 1 4 8
20 21 23 27 28 26 7 9 10 12 14 13 16 19 20 21 23 22 19 19 19 19 17 16 15 12 11 11 11 11 8 6 6 5 5 5 4 4 4 3 3 2 3 4
23 23 25 26 25 21 10 13 14 14 15 15 18 19 20 22 20 19 20 20 22 17 17 16 15 13 12 12 11 9 7 9 7 6 5 4 4 4 4 4 4 3 4 4
24 26 21 21 22 19 20 17 17 18 17 19 19 18 18 18 19 19 18 17 17 18 18 18 16 14 13 12 13 8 7 7 8 6 5 4 4 5 4 4 3 3 2 3
25 24 15 18 17 14 11 13 14 17 18 18 18 19 20 22 21 19 18 15 14 13 14 14 16 15 13 13 11 9 8 7 7 6 5 5 5 5 4 4 4 3 2 2
25 24 16 15 18 17 16 15 15 16 17 19 21 20 20 19 19 19 18 18 17 17 11 14 18 17 14 13 12 8 8 8 7 6 6 6 5 5 4 4 4 3 2 2
26 24 17 19 14 15 15 13 17 17 16 18 17 17 15 15 17 18 19 19 19 12 17 17 18 14 13 14 13 8 9 9 8 7 6 5 5 5 4 5 4 4 3 1
23 18 16 14 13 14 16 17 19 17 18 18 22 20 19 16 17 19 17 13 5 15 17 21 15 11 10 12 10 8 8 8 8 7 7 6 5 5 4 4 4 4 3 2
13 12 12 12 13 13 12 17 18 18 19 17 15 17 18 16 16 15 11 15 10 20 14 12 11 15 12 16 9 9 8 8 7 6 6 6 5 5 5 5 5 4 3 3
11 7 7 11 16 15 13 14 15 19 20 18 18 18 18 16 15 14 10 9 12 16 13 11 15 17 19 11 9 9 9 8 8 7 6 6 6 6 5 6 5 4 4 4
5 8 6 6 10 13 14 12 14 15 16 18 19 20 18 12 5 2 8 16 21 18 13 13 16 19 18 9 9 9 8 8 7 6 6 7 5 5 5 5 5 4 4 4
7 7 8 11 11 9 12 14 14 13 12 10 11 12 13 11 15 12 13 13 21 17 12 17 20 20 11 10 9 9 8 8 7 7 7 6 6 6 5 5 5 5 4 4
10 7 8 14 10 9 10 13 11 11 12 10 8 8 6 6 10 11 12 16 15 15 12 12 12 12 9 10 10 9 8 7 7 7 7 7 6 6 6 5 5 5 5 4
5 7 6 6 5 9 9 10 13 12 11 12 13 10 10 10 11 12 15 14 12 11 11 11 11 12 10 9 9 8 7 7 7 7 7 6 6 6 6 6 6 5 4 4
Wind_Direction
233 184 173 173 177 180 196 204 208 180 180 196 185 181 185 169 162 165 173 169 168 164 165 162 160 154 143 137 137 137 123 112 106 100 87 76 55 39 24 21 13 351 14 20
213 203 180 181 203 196 215 212 255 171 233 200 191 136 160 173 168 175 174 172 169 167 163 168 165 158 148 147 145 135 123 113 111 92 82 70 58 42 40 25 11 18 14 15
231 185 123 293 211 208 197 205 184 218 205 155 168 178 179 178 179 177 175 171 170 171 169 169 164 155 156 153 141 131 121 118 117 102 94 80 64 49 38 23 14 23 13 3
214 87 179 248 164 198 206 218 216 207 178 180 180 190 190 185 178 174 171 171 170 168 163 157 148 151 142 141 138 130 122 123 123 116 104 78 60 47 31 18 18 6 354 4
164 204 254 215 222 170 174 250 217 206 196 190 190 144 151 178 185 179 172 170 171 165 154 147 153 151 140 138 136 127 134 135 131 127 112 90 64 41 26 30 11 357 347 3
140 185 219 249 193 145 81 268 216 201 197 173 149 185 189 184 183 175 166 162 158 151 146 146 152 148 142 145 140 146 148 142 135 131 116 95 78 55 34 28 4 349 354 16
217 245 274 232 170 130 154 261 196 185 189 171 186 184 192 168 168 164 159 154 146 150 156 155 151 147 146 148 160 152 138 133 131 126 113 111 91 66 47 22 9 6 360 348
186 203 254 192 103 169 226 284 189 183 187 192 196 163 156 160 158 154 155 149 151 148 149 152 153 149 151 160 149 143 138 132 128 123 112 100 87 61 53 30 19 2 356 350
189 213 258 199 185 223 220 232 229 180 190 194 162 156 158 159 159 159 155 154 153 148 146 152 157 155 152 155 147 144 138 138 133 124 110 99 94 73 57 34 27 9 3 359
321 237 216 214 238 251 196 217 221 225 189 179 168 158 160 156 155 153 154 152 148 145 151 154 154 153 152 151 148 145 143 142 137 126 115 103 96 95 84 53 35 27 15 2
298 290 298 278 231 213 219 219 214 210 176 178 159 168 156 157 157 155 153 151 152 153 156 153 149 146 150 150 146 147 143 141 137 128 122 112 107 109 87 69 76 58 24 359
257 303 315 299 292 220 220 212 214 181 168 172 166 161 160 158 157 152 151 149 148 150 146 147 149 149 150 151 151 147 144 147 147 136 130 125 119 95 51 75 66 53 35 39
258 273 281 284 284 268 217 217 190 180 184 165 171 163 159 152 157 154 151 151 151 154 148 148 149 151 155 152 147 149 148 148 140 138 138 137 128 110 96 22 65 57 40 33
268 278 277 274 280 282 214 191 172 155 176 170 161 160 159 153 147 153 157 154 145 143 146 149 150 157 157 149 145 143 139 137 144 142 138 137 136 136 134 137 122 350 27 30
248 254 261 274 278 275 236 143 153 158 157 157 162 157 155 156 155 157 148 143 140 142 145 149 151 157 152 147 145 144 140 143 143 138 139 138 135 121 98 88 72 51 15 8
260 265 263 255 261 259 198 177 167 171 165 159 160 162 163 156 149 145 143 143 143 156 155 155 158 157 151 145 142 138 140 141 144 141 138 134 123 113 97 80 62 44 32 8
259 258 253 258 251 228 206 186 174 168 163 165 161 151 147 147 141 142 148 153 149 151 157 158 157 152 150 150 148 147 142 147 144 135 138 138 126 121 118 111 100 76 43 18
232 239 241 255 247 213 203 189 170 168 168 159 149 148 147 151 153 152 148 141 133 138 156 155 149 149 151 151 146 145 146 150 148 144 139 132 130 129 126 126 122 109 63 11
227 237 247 256 232 205 195 177 170 160 156 152 150 157 157 155 152 146 143 143 146 149 164 148 147 149 150 151 143 143 146 147 144 142 139 132 129 131 133 133 131 125 119 68
233 242 244 249 213 190 190 171 155 155 157 151 145 145 144 147 147 147 154 162 171 162 150 151 152 152 150 149 143 147 148 151 151 146 138 137 141 145 141 137 144 144 148 132
220 227 235 214 191 181 183 160 153 158 157 156 152 158 156 151 151 149 150 160 180 145 150 152 153 151 150 148 146 147 147 150 150 153 152 154 147 152 151 152 157 161 170 159
204 198 203 188 170 163 173 164 157 151 155 153 155 144 141 147 152 162 168 164 148 149 147 152 151 152 149 149 147 147 151 152 149 147 151 156 158 158 165 166 171 176 173 184
182 183 172 167 173 164 154 157 153 157 156 155 149 150 158 161 160 155 160 156 150 154 150 151 149 146 147 150 150 152 155 155 158 162 165 166 166 164 161 176 179 168 172 190
135 137 144 128 127 139 153 160 153 158 159 159 161 159 148 144 132 70 99 146 144 150 151 147 150 149 152 150 151 156 157 158 161 162 164 163 162 159 162 165 166 179 179 194
154 131 140 133 151 183 149 144 135 136 138 141 144 154 157 168 160 153 143 148 151 148 144 149 150 151 151 154 158 161 163 164 163 162 165 165 166 168 164 165 167 174 181 193
145 170 164 163 158 149 146 148 144 144 143 137 136 139 121 108 123 134 138 145 151 143 142 148 153 157 152 158 159 158 159 155 157 165 166 163 162 164 164 166 169 176 181 187
135 144 130 108 125 142 151 142 141 149 152 152 146 146 137 129 138 135 137 144 143 143 142 148 154 157 154 153 152 153 153 154 160 162 165 161 162 162 169 173 177 174 171 178